DELTA 1 DEB, 10709

Orbit data source: Space-Track

DELTA 1 DEB, 10709 is space debris in SSO originally from a launch on Thu, 29 Jul 1976 UTC launched from the Air Force Western Test Range (AFWTR). Debris objects in space refer to the collection of defunct objects orbiting the Earth. Examples of debris include non-operational satellites, rocket bodies, and fragments generated from explosions, collisions, or faulty payload assembly.

Loading next visibility...
Identifier
10709, 1976-077AE
Orbit
SSO
Country
Flag of USUS
Related business
Manufacturer
Unknown
Mission
Spacecraft
Bus & Motor
Unknown
Mass
Unknown
Launch date (UTC)
1976-07-29 (50 years ago)
Launch vehicle
Unknown
Launch site
Air Force Western Test Range (AFWTR)
Object type
Payload
Rocket body
Debris
Shape & HBR
Unknown shape, 0.1 m
Radar Cross Section
Medium (>0.1 m² and <1 m²)

Expand to show TLE details & history
Last TLE update: 4 hours ago

TLE from 4 hours ago
0 DELTA 1 DEB
1 10709U 76077AE  26119.17720529 -.00000339  00000-0 -20194-2 0  9991
2 10709 101.9096 187.8669 0024996 231.1445 152.5245 12.46579665259922
Epoch: 2026-04-29T04:15Z
TLE epoch observation values (Epoch: 2026-04-29T04:15:10.537Z)
Latitude
23.27863°
Longitude
-98.24947°
Altitude
1,498.777 km
Speed
7.109 km/s
True Right ascension
12h 10m 44s
True Declination
23° 09' 57"
Sunlit
Object was in full shadow at epoch
Visualization orbit readout
Latitude
Unknown
Longitude
Unknown
Altitude
Unknown
Speed
Unknown
Apparent Right ascension
Unknown
Apparent Declination
Unknown
Sunlit
N/A
Visualization observer readout
Local Sidereal Time
15:31:12
Azimuth
Unknown
Elevation
Unknown
Doppler factor
Unknown
Orbital elements
Apogee altitude
1,496.028 km
Perigee altitude
1,456.762 km
Semi-major axis
7,854.532 km
Eccentricity
0.0025
Inclination
101.9096°
RAAN
187.8669°
Arg. of periapsis
231.1445°
True anomaly
152.65629°
Mean anomaly
152.5245°
Eccentric anomaly
152.59043°
Mean motion
3.1179 °/min
Orbital period
115.46 mins
BSTAR
-0.0020194
Loading maneuver chart data...
Computing Atmospheric mass density...
Loading historical data...
Loading historical data...
Loading historical data...
Loading historical data...
Loading historical data...
Loading historical data...
Loading historical data...

Documentation

Showing up to 5 results
|